Flag for Senegal Weather past 2 weeks in Thiès, Senegal

Now
77 °F

Passing clouds.


Feels Like: 78 °F
Forecast: N/A
Wind: 6 mph from Northwest

Location: Dakar / Yoff

Current Time: Jun 2, 2015 at 11:45:34 PM

Latest Report: Jun 2, 2015 at 11:00 PM


Visibility: N/A

Pressure: 29.92 "Hg

Humidity: 83%

Dew point: 72 °F

Location of ThièsLocation

Historic Weather in Thiès — Graph

°F

Thiès temperature yesterday

Maximum temperature yesterday: 84 °F (at 12:00 PM)
Minimum temperature yesterday: 73 °F (at 3:30 AM)
Average temperature yesterday: 78 °F

Past Weeks' High & Low Weather Summary

 TemperatureHumidityPressure
High84 °F (May 22, 2:00 PM)100% (May 28, 2:00 PM)30.04 "Hg (May 28, 2:00 PM)
Low72 °F (May 19, 5:30 AM)62% (Jun 1, 12:30 PM)29.77 "Hg (Jun 1, 4:00 PM)
Average77 °F80%29.89 "Hg
* Reported May 18 10:00 PM — Jun 2 10:30 PM, Thiès, Weather by CustomWeather, © 2015

Note: Actual official high and low records may vary slightly from our data, if they occured in-between our weather recording intervals... More about our weather records

Advertising

Thiès weather history for previous 24 hours

 ConditionsComfort  
Time TempWeatherWind HumidityBarometerVisibility
10:30 PM
Tue, Jun 2
77 °FPassing clouds.6 mph83%29.92 "HgN/A
10:00 PM77 °FPassing clouds.5 mph79%29.89 "HgN/A
9:30 PM77 °FPassing clouds.5 mph83%29.89 "HgN/A
9:00 PM77 °FPassing clouds.3 mph83%29.89 "HgN/A
8:30 PM77 °FPassing clouds.6 mph83%29.86 "HgN/A
8:00 PM77 °FPassing clouds.6 mph83%29.86 "HgN/A
7:30 PM79 °FScattered clouds.5 mph79%29.86 "HgN/A
7:00 PM79 °FScattered clouds.6 mph79%29.83 "HgN/A
6:30 PM81 °FScattered clouds.6 mph74%29.83 "HgN/A
6:00 PM82 °FScattered clouds.7 mph70%29.83 "HgN/A
5:30 PM82 °FScattered clouds.6 mph70%29.80 "HgN/A
5:00 PM82 °FScattered clouds.7 mph70%29.80 "HgN/A
4:30 PM82 °FScattered clouds.7 mph74%29.80 "HgN/A
4:00 PM84 °FScattered clouds.8 mph70%29.83 "HgN/A
3:30 PM82 °FScattered clouds.8 mph70%29.83 "HgN/A
3:00 PM84 °FPassing clouds.8 mph70%29.83 "HgN/A
2:30 PM84 °FPassing clouds.9 mph70%29.83 "HgN/A
2:00 PM84 °FScattered clouds.8 mph70%29.86 "HgN/A
1:30 PM84 °FPassing clouds.7 mph70%29.86 "HgN/A
1:00 PM84 °FScattered clouds.7 mph70%29.86 "HgN/A
12:30 PM82 °FPassing clouds.7 mph70%29.89 "HgN/A
12:00 PM82 °FPassing clouds.6 mph70%29.89 "HgN/A
11:30 AM82 °FPassing clouds.6 mph70%29.89 "HgN/A
11:00 AM82 °FPassing clouds.5 mph66%29.89 "HgN/A
10:30 AM81 °FPassing clouds.6 mph70%29.92 "HgN/A
10:00 AM81 °FPassing clouds.5 mph70%29.86 "HgN/A
9:30 AM81 °FPassing clouds.6 mph70%29.86 "HgN/A
9:00 AM79 °FPassing clouds.6 mph79%29.86 "HgN/A
8:30 AM77 °FScattered clouds.3 mph83%29.86 "HgN/A
8:00 AM77 °FScattered clouds.3 mph89%29.86 "HgN/A
7:30 AM77 °FScattered clouds.3 mph89%29.83 "HgN/A
7:00 AM77 °FScattered clouds.3 mph89%29.83 "HgN/A
6:30 AM77 °FPassing clouds.5 mph89%29.83 "HgN/A
6:00 AM77 °FPassing clouds.5 mph89%29.83 "HgN/A
5:30 AM77 °FClear.2 mph89%29.80 "Hg10 mi
5:00 AM77 °FPassing clouds.6 mph89%29.80 "HgN/A
4:30 AM77 °FClear.2 mph89%29.80 "Hg10 mi
3:30 AM77 °FPassing clouds.5 mph89%29.80 "HgN/A
3:00 AM77 °FPassing clouds.5 mph83%29.80 "HgN/A
2:30 AM75 °FPassing clouds.5 mph89%29.80 "HgN/A
2:13 AM75 °FMild.N/A89%29.80 "HgN/A
1:00 AM75 °FClear.3 mph89%29.83 "Hg10 mi
12:30 AM75 °FClear.3 mph89%29.83 "Hg10 mi
12:00 AM75 °FClear.3 mph89%29.83 "Hg10 mi
11:30 PM
Mon, Jun 1
77 °FPassing clouds.5 mph83%29.83 "HgN/A
11:00 PM77 °FPassing clouds.6 mph83%29.83 "HgN/A
Weather by CustomWeather, © 2015

See weather overviewHow to use our weather pages